Year,Month,Day,Hour,Minute,Value (Times are PST for temperature in C)
2013,03,01,10,36,11.30
2013,03,01,10,37,11.30
2013,03,01,10,38,11.30
2013,03,01,10,39,11.40
2013,03,01,10,40,11.40
2013,03,01,10,41,11.40
2013,03,01,10,42,11.40
2013,03,01,10,43,11.40
2013,03,01,10,44,11.50
2013,03,01,10,45,11.40
2013,03,01,10,46,11.40
2013,03,01,10,47,11.40
2013,03,01,10,48,11.40
2013,03,01,10,49,11.30
2013,03,01,10,50,11.20
2013,03,01,10,51,11.20
2013,03,01,10,52,11.20
2013,03,01,10,53,11.20
2013,03,01,10,54,11.20
2013,03,01,10,55,11.20
2013,03,01,10,56,11.20
2013,03,01,10,57,11.20
2013,03,01,10,58,11.20
2013,03,01,10,59,11.10
2013,03,01,11,00,11.10
2013,03,01,11,01,11.10
2013,03,01,11,02,11.10
2013,03,01,11,03,11.00
2013,03,01,11,04,11.00
2013,03,01,11,05,11.00
2013,03,01,11,06,10.90
2013,03,01,11,07,11.00
2013,03,01,11,08,11.00
2013,03,01,11,09,11.00
2013,03,01,11,10,11.10
2013,03,01,11,11,11.10
2013,03,01,11,12,11.10
2013,03,01,11,13,11.10
2013,03,01,11,14,11.20
2013,03,01,11,15,11.20
2013,03,01,11,16,11.20
2013,03,01,11,17,11.20
2013,03,01,11,18,11.20
2013,03,01,11,19,11.20
2013,03,01,11,20,11.30
2013,03,01,11,21,11.30
2013,03,01,11,22,11.30
2013,03,01,11,23,11.30
2013,03,01,11,24,11.30
2013,03,01,11,25,11.30
2013,03,01,11,26,11.30
2013,03,01,11,27,11.30
2013,03,01,11,28,11.30
2013,03,01,11,29,11.30
2013,03,01,11,30,11.40
2013,03,01,11,31,11.40
2013,03,01,11,32,11.50
2013,03,01,11,33,11.50
2013,03,01,11,34,11.50
2013,03,01,11,35,11.40
2013,03,01,11,36,11.40
2013,03,01,11,37,11.40
2013,03,01,11,38,11.40
2013,03,01,11,39,11.50
2013,03,01,11,40,11.50
2013,03,01,11,41,11.60
2013,03,01,11,42,11.60
2013,03,01,11,43,11.60
2013,03,01,11,44,11.60
2013,03,01,11,45,11.60
2013,03,01,11,46,11.70
2013,03,01,11,47,11.70
2013,03,01,11,48,11.80
2013,03,01,11,49,11.80
2013,03,01,11,50,11.90
2013,03,01,11,51,11.90
2013,03,01,11,52,11.90
2013,03,01,11,53,12.00
2013,03,01,11,54,12.10
2013,03,01,11,55,12.10
2013,03,01,11,56,12.10
2013,03,01,11,57,12.20
2013,03,01,11,58,12.20
2013,03,01,11,59,12.30
2013,03,01,12,00,12.30
2013,03,01,12,01,12.40
2013,03,01,12,02,12.40
2013,03,01,12,03,12.40
2013,03,01,12,04,12.40
2013,03,01,12,05,12.40
2013,03,01,12,06,12.40
2013,03,01,12,07,12.40
2013,03,01,12,08,12.40
2013,03,01,12,09,12.40
2013,03,01,12,10,12.40
2013,03,01,12,11,12.40
2013,03,01,12,12,12.40
2013,03,01,12,13,12.40
2013,03,01,12,14,12.40
2013,03,01,12,15,12.40
2013,03,01,12,16,12.40
2013,03,01,12,17,12.50
2013,03,01,12,18,12.60
2013,03,01,12,19,12.60
2013,03,01,12,20,12.60
2013,03,01,12,21,12.60
2013,03,01,12,22,12.60
2013,03,01,12,23,12.60
2013,03,01,12,24,12.60
2013,03,01,12,25,12.60
2013,03,01,12,26,12.70
2013,03,01,12,27,12.70
2013,03,01,12,28,12.70
2013,03,01,12,29,12.70
2013,03,01,12,30,12.80
2013,03,01,12,31,12.80
2013,03,01,12,32,12.80
2013,03,01,12,33,12.80
2013,03,01,12,34,12.90
2013,03,01,12,35,12.90
2013,03,01,12,36,12.90
2013,03,01,12,37,13.00
2013,03,01,12,38,13.10
2013,03,01,12,39,13.10
2013,03,01,12,40,13.10
2013,03,01,12,41,13.10
2013,03,01,12,42,13.10
2013,03,01,12,43,13.10
2013,03,01,12,44,13.10
2013,03,01,12,45,13.20
2013,03,01,12,46,13.20
2013,03,01,12,47,13.20
2013,03,01,12,48,13.20
2013,03,01,12,49,13.20
2013,03,01,12,50,13.20
2013,03,01,12,51,13.20
2013,03,01,12,52,13.30
2013,03,01,12,53,13.30
2013,03,01,12,54,13.30
2013,03,01,12,55,13.30
2013,03,01,12,56,13.40
2013,03,01,12,57,13.40
2013,03,01,12,58,13.40
2013,03,01,12,59,13.50
2013,03,01,13,00,13.50
2013,03,01,13,01,13.50
2013,03,01,13,02,13.50
2013,03,01,13,03,13.60
2013,03,01,13,04,13.60
2013,03,01,13,05,13.60
2013,03,01,13,06,13.70
2013,03,01,13,07,13.70
2013,03,01,13,08,13.70
2013,03,01,13,09,13.70
2013,03,01,13,10,13.60
2013,03,01,13,11,13.60
2013,03,01,13,12,13.60
2013,03,01,13,13,13.60
2013,03,01,13,14,13.60
2013,03,01,13,15,13.50
2013,03,01,13,16,13.50
2013,03,01,13,17,13.50
2013,03,01,13,18,13.60
2013,03,01,13,19,13.60
2013,03,01,13,20,13.60
2013,03,01,13,21,13.60
2013,03,01,13,22,13.70
2013,03,01,13,23,13.70
2013,03,01,13,24,13.60
2013,03,01,13,25,13.60
2013,03,01,13,26,13.60
2013,03,01,13,27,13.60
2013,03,01,13,28,13.60
2013,03,01,13,29,13.60
2013,03,01,13,30,13.60
2013,03,01,13,31,13.60
2013,03,01,13,32,13.60
2013,03,01,13,33,13.60
2013,03,01,13,34,13.50
2013,03,01,13,35,13.50
2013,03,01,13,36,13.40
2013,03,01,13,37,13.40
2013,03,01,13,38,13.40
2013,03,01,13,39,13.40
2013,03,01,13,40,13.40
2013,03,01,13,41,13.30
2013,03,01,13,42,13.30
2013,03,01,13,43,13.30
2013,03,01,13,44,13.30
2013,03,01,13,45,13.30
2013,03,01,13,46,13.30
2013,03,01,13,47,13.30
2013,03,01,13,48,13.30
2013,03,01,13,49,13.40
2013,03,01,13,50,13.40
2013,03,01,13,51,13.30
2013,03,01,13,52,13.30
2013,03,01,13,53,13.30
2013,03,01,13,54,13.30
2013,03,01,13,55,13.30
2013,03,01,13,56,13.30
2013,03,01,13,57,13.30
2013,03,01,13,58,13.30
2013,03,01,13,59,13.30
2013,03,01,14,00,13.30
2013,03,01,14,01,13.30
2013,03,01,14,02,13.30
2013,03,01,14,03,13.30
2013,03,01,14,04,13.30
2013,03,01,14,05,13.30
2013,03,01,14,06,13.30
2013,03,01,14,07,13.40
2013,03,01,14,08,13.40
2013,03,01,14,09,13.40
2013,03,01,14,10,13.40
2013,03,01,14,11,13.40
2013,03,01,14,12,13.40
2013,03,01,14,13,13.40
2013,03,01,14,14,13.30
2013,03,01,14,15,13.30
2013,03,01,14,16,13.30
2013,03,01,14,17,13.30
2013,03,01,14,18,13.30
2013,03,01,14,19,13.30
2013,03,01,14,20,13.30
2013,03,01,14,21,13.30
2013,03,01,14,22,13.30
2013,03,01,14,23,13.30
2013,03,01,14,24,13.30
2013,03,01,14,25,13.30
2013,03,01,14,26,13.30
2013,03,01,14,27,13.30
2013,03,01,14,28,13.30
2013,03,01,14,29,13.30
2013,03,01,14,30,13.40
2013,03,01,14,31,13.40
2013,03,01,14,32,13.40
2013,03,01,14,33,13.40
2013,03,01,14,34,13.40
2013,03,01,14,35,13.40
2013,03,01,14,36,13.40
2013,03,01,14,37,13.50
2013,03,01,14,38,13.50
2013,03,01,14,39,13.50
2013,03,01,14,40,13.50
2013,03,01,14,41,13.50
2013,03,01,14,42,13.50
2013,03,01,14,43,13.60
2013,03,01,14,44,13.60
2013,03,01,14,45,13.60
2013,03,01,14,46,13.60
2013,03,01,14,47,13.60
2013,03,01,14,48,13.60
2013,03,01,14,49,13.50
2013,03,01,14,50,13.50
2013,03,01,14,51,13.50
2013,03,01,14,52,13.40
2013,03,01,14,53,13.40
2013,03,01,14,54,13.40
2013,03,01,14,55,13.40
2013,03,01,14,56,13.30
2013,03,01,14,57,13.30
2013,03,01,14,58,13.30
2013,03,01,14,59,13.30
2013,03,01,15,00,13.20
2013,03,01,15,01,13.20
2013,03,01,15,02,13.20
2013,03,01,15,03,13.20
2013,03,01,15,04,13.20
2013,03,01,15,05,13.20
2013,03,01,15,06,13.20
2013,03,01,15,07,13.20
2013,03,01,15,08,13.20
2013,03,01,15,09,13.20
2013,03,01,15,10,13.30
2013,03,01,15,11,13.30
2013,03,01,15,12,13.30
2013,03,01,15,13,13.30
2013,03,01,15,14,13.30
2013,03,01,15,15,13.40
2013,03,01,15,16,13.40
2013,03,01,15,17,13.40
2013,03,01,15,18,13.40
2013,03,01,15,19,13.40
2013,03,01,15,20,13.40
2013,03,01,15,21,13.40
2013,03,01,15,22,13.40
2013,03,01,15,23,13.40
2013,03,01,15,24,13.40
2013,03,01,15,25,13.30
2013,03,01,15,26,13.30
2013,03,01,15,27,13.30
2013,03,01,15,28,13.30
2013,03,01,15,29,13.30
2013,03,01,15,30,13.20
2013,03,01,15,31,13.20
2013,03,01,15,32,13.20
2013,03,01,15,33,13.20
2013,03,01,15,34,13.20
2013,03,01,15,35,13.20
2013,03,01,15,36,13.20
2013,03,01,15,37,13.20
2013,03,01,15,38,13.20
2013,03,01,15,39,13.20
2013,03,01,15,40,13.20
2013,03,01,15,41,13.20
2013,03,01,15,42,13.10
2013,03,01,15,43,13.10
2013,03,01,15,44,13.10
2013,03,01,15,45,13.10
2013,03,01,15,46,13.10
2013,03,01,15,47,13.10
2013,03,01,15,48,13.00
2013,03,01,15,49,13.00
2013,03,01,15,50,13.00
2013,03,01,15,51,13.00
2013,03,01,15,52,13.00
2013,03,01,15,53,13.00
2013,03,01,15,54,13.00
2013,03,01,15,55,13.00
2013,03,01,15,56,13.00
2013,03,01,15,57,13.00
2013,03,01,15,58,13.00
2013,03,01,15,59,13.00
2013,03,01,16,00,13.00
2013,03,01,16,01,13.00
2013,03,01,16,02,13.00
2013,03,01,16,03,12.90
2013,03,01,16,04,12.90
2013,03,01,16,05,12.90
2013,03,01,16,06,12.90
2013,03,01,16,07,12.90
2013,03,01,16,08,12.90
2013,03,01,16,09,12.90
2013,03,01,16,10,12.90
2013,03,01,16,11,12.90
2013,03,01,16,12,12.90
2013,03,01,16,13,12.90
2013,03,01,18,28,11.60
2013,03,01,18,29,11.60
2013,03,01,18,30,11.60
2013,03,01,18,31,11.60
2013,03,01,18,32,11.60
2013,03,01,18,33,11.60
2013,03,01,18,34,11.60
2013,03,01,18,35,11.60
2013,03,01,18,36,11.60
2013,03,01,18,37,11.60
2013,03,01,18,38,11.60
2013,03,01,18,39,11.60
2013,03,01,18,40,11.60
2013,03,01,18,41,11.60
